EN

Hourly Weather Alot

Today, 18 January, Monday

Time Temperature Precipitation Wind Pressure Humidity
00:00 +23°C° 0 mm 2 mps 720 mmHg 53%
01:00 +21°C° 0 mm 2 mps 720 mmHg 54%
02:00 +21°C° 0 mm 2 mps 720 mmHg 56%
03:00 +21°C° 0 mm 1 mps 720 mmHg 58%
04:00 +21°C° 0 mm 1 mps 720 mmHg 59%
05:00 +20°C° 0 mm 1 mps 720 mmHg 60%
06:00 +20°C° 0 mm 2 mps 721 mmHg 58%
07:00 +20°C° 0 mm 2 mps 721 mmHg 56%
08:00 +21°C° 0 mm 2 mps 722 mmHg 55%
09:00 +25°C° 0 mm 2 mps 722 mmHg 47%
10:00 +27°C° 0 mm 3 mps 722 mmHg 40%
11:00 +30°C° 0 mm 3 mps 723 mmHg 33%
12:00 +32°C° 0 mm 4 mps 722 mmHg 32%
13:00 +33°C° 0 mm 4 mps 721 mmHg 31%
14:00 +34°C° 0 mm 4 mps 721 mmHg 30%
15:00 +33°C° 0 mm 4 mps 720 mmHg 31%
16:00 +31°C° 0 mm 3 mps 720 mmHg 33%
17:00 +30°C° 0 mm 3 mps 720 mmHg 34%
18:00 +28°C° 0 mm 3 mps 720 mmHg 33%
19:00 +26°C° 0 mm 3 mps 720 mmHg 32%
20:00 +24°C° 0 mm 3 mps 721 mmHg 31%
21:00 +24°C° 0 mm 3 mps 721 mmHg 33%
22:00 +23°C° 0 mm 2 mps 720 mmHg 35%
23:00 +21°C° 0 mm 2 mps 720 mmHg 38%

Tomorrow, 19 January, Tuesday

Time Temperature Precipitation Wind Pressure Humidity
00:00 +20°C° 0 mm 2 mps 720 mmHg 45%
01:00 +19°C° 0 mm 2 mps 720 mmHg 52%
02:00 +18°C° 0 mm 2 mps 719 mmHg 59%
03:00 +18°C° 0 mm 2 mps 719 mmHg 59%
04:00 +18°C° 0 mm 2 mps 719 mmHg 59%
05:00 +18°C° 0 mm 1 mps 720 mmHg 60%
06:00 +19°C° 0 mm 1 mps 720 mmHg 57%
07:00 +20°C° 0 mm 1 mps 721 mmHg 54%
08:00 +20°C° 0 mm 1 mps 722 mmHg 51%
09:00 +23°C° 0 mm 1 mps 722 mmHg 44%
10:00 +25°C° 0 mm 1 mps 722 mmHg 38%
11:00 +28°C° 0 mm 1 mps 722 mmHg 31%
12:00 +29°C° 0 mm 2 mps 722 mmHg 28%
13:00 +30°C° 0 mm 2 mps 721 mmHg 24%
14:00 +31°C° 0 mm 2 mps 720 mmHg 21%
15:00 +30°C° 0 mm 2 mps 720 mmHg 23%
16:00 +29°C° 0 mm 2 mps 720 mmHg 25%
17:00 +28°C° 0 mm 2 mps 720 mmHg 28%
18:00 +26°C° 0 mm 2 mps 720 mmHg 32%
19:00 +24°C° 0 mm 3 mps 720 mmHg 36%
20:00 +21°C° 0 mm 3 mps 720 mmHg 40%
21:00 +20°C° 0 mm 2 mps 721 mmHg 42%
22:00 +20°C° 0 mm 2 mps 721 mmHg 45%
23:00 +20°C° 0 mm 1 mps 721 mmHg 47%

Day after tomorrow, 20 January, Wednesday

Time Temperature Precipitation Wind Pressure Humidity
00:00 +19°C° 0 mm 1 mps 720 mmHg 48%
01:00 +19°C° 0 mm 1 mps 720 mmHg 48%
02:00 +18°C° 0 mm 1 mps 720 mmHg 49%
03:00 +18°C° 0 mm 1 mps 720 mmHg 50%
04:00 +18°C° 0 mm 1 mps 720 mmHg 51%
05:00 +16°C° 0 mm 1 mps 720 mmHg 51%
06:00 +18°C° 0 mm 1 mps 721 mmHg 50%
07:00 +19°C° 0 mm 1 mps 722 mmHg 49%
08:00 +19°C° 0 mm 1 mps 722 mmHg 47%
09:00 +21°C° 0 mm 2 mps 723 mmHg 41%
10:00 +24°C° 0 mm 2 mps 723 mmHg 35%
11:00 +27°C° 0 mm 2 mps 723 mmHg 29%
12:00 +28°C° 0 mm 2 mps 722 mmHg 27%
13:00 +29°C° 0 mm 2 mps 722 mmHg 24%
14:00 +30°C° 0 mm 2 mps 721 mmHg 22%
15:00 +29°C° 0 mm 2 mps 721 mmHg 24%
16:00 +28°C° 0 mm 3 mps 721 mmHg 27%
17:00 +27°C° 0 mm 3 mps 721 mmHg 29%
18:00 +25°C° 0 mm 3 mps 721 mmHg 32%
19:00 +24°C° 0 mm 3 mps 721 mmHg 34%
20:00 +21°C° 0 mm 3 mps 721 mmHg 37%
21:00 +20°C° 0 mm 3 mps 722 mmHg 38%
22:00 +19°C° 0 mm 3 mps 722 mmHg 40%
23:00 +19°C° 0 mm 2 mps 722 mmHg 42%

21 January, Thursday

Time Temperature Precipitation Wind Pressure Humidity
00:00 +18°C° 0 mm 2 mps 721 mmHg 42%
01:00 +18°C° 0 mm 2 mps 721 mmHg 43%
02:00 +17°C° 0 mm 2 mps 721 mmHg 43%
03:00 +18°C° 0 mm 1 mps 721 mmHg 44%
04:00 +16°C° 0 mm 1 mps 721 mmHg 45%
05:00 +16°C° 0 mm 1 mps 721 mmHg 46%
06:00 +16°C° 0 mm 1 mps 721 mmHg 45%
07:00 +17°C° 0 mm 2 mps 722 mmHg 43%
08:00 +18°C° 0 mm 2 mps 723 mmHg 42%
09:00 +20°C° 0 mm 2 mps 723 mmHg 35%
10:00 +24°C° 0 mm 2 mps 723 mmHg 28%
11:00 +26°C° 0 mm 2 mps 723 mmHg 20%
12:00 +27°C° 0 mm 2 mps 723 mmHg 19%
13:00 +28°C° 0 mm 2 mps 722 mmHg 17%
14:00 +29°C° 0 mm 2 mps 722 mmHg 16%
15:00 +28°C° 0 mm 2 mps 721 mmHg 18%
16:00 +27°C° 0 mm 2 mps 721 mmHg 19%
17:00 +27°C° 0 mm 2 mps 721 mmHg 21%
18:00 +25°C° 0 mm 2 mps 721 mmHg 22%
19:00 +23°C° 0 mm 2 mps 721 mmHg 22%
20:00 +20°C° 0 mm 2 mps 722 mmHg 23%
21:00 +20°C° 0 mm 2 mps 722 mmHg 24%
22:00 +19°C° 0 mm 2 mps 722 mmHg 24%
23:00 +18°C° 0 mm 2 mps 722 mmHg 25%

22 January, Friday

Time Temperature Precipitation Wind Pressure Humidity
00:00 +18°C° 0 mm 2 mps 721 mmHg 26%
01:00 +17°C° 0 mm 2 mps 721 mmHg 27%
02:00 +16°C° 0 mm 1 mps 721 mmHg 28%
03:00 +16°C° 0 mm 1 mps 721 mmHg 28%
04:00 +16°C° 0 mm 1 mps 721 mmHg 29%
05:00 +16°C° 0 mm 1 mps 721 mmHg 29%
06:00 +16°C° 0 mm 1 mps 721 mmHg 29%
07:00 +17°C° 0 mm 2 mps 722 mmHg 29%
08:00 +18°C° 0 mm 2 mps 722 mmHg 29%
09:00 +21°C° 0 mm 2 mps 723 mmHg 25%
10:00 +24°C° 0 mm 2 mps 723 mmHg 22%
11:00 +27°C° 0 mm 2 mps 723 mmHg 18%
12:00 +28°C° 0 mm 2 mps 722 mmHg 17%
13:00 +30°C° 0 mm 1 mps 722 mmHg 16%
14:00 +31°C° 0 mm 1 mps 721 mmHg 15%
15:00 +30°C° 0 mm 1 mps 721 mmHg 17%
16:00 +29°C° 0 mm 1 mps 720 mmHg 20%
17:00 +26°C° 0 mm 0 mps 720 mmHg 22%
18:00 +26°C° 0 mm 1 mps 720 mmHg 23%
19:00 +25°C° 0 mm 1 mps 720 mmHg 24%
20:00 +23°C° 0 mm 1 mps 721 mmHg 25%
21:00 +22°C° 0 mm 1 mps 721 mmHg 26%
22:00 +21°C° 0 mm 1 mps 720 mmHg 27%
23:00 +20°C° 0 mm 1 mps 720 mmHg 28%

23 January, Saturday

Time Temperature Precipitation Wind Pressure Humidity
00:00 +19°C° 0 mm 2 mps 720 mmHg 30%
01:00 +19°C° 0 mm 2 mps 720 mmHg 32%
02:00 +18°C° 0 mm 2 mps 719 mmHg 34%
03:00 +18°C° 0 mm 2 mps 719 mmHg 35%
04:00 +18°C° 0 mm 2 mps 719 mmHg 36%
05:00 +17°C° 0 mm 2 mps 719 mmHg 37%
06:00 +18°C° 0 mm 2 mps 719 mmHg 37%
07:00 +19°C° 0 mm 2 mps 720 mmHg 37%
08:00 +20°C° 0 mm 2 mps 720 mmHg 36%
09:00 +24°C° 0 mm 3 mps 721 mmHg 31%
10:00 +27°C° 0 mm 3 mps 721 mmHg 26%
11:00 +30°C° 0 mm 4 mps 721 mmHg 20%
12:00 +32°C° 0 mm 4 mps 721 mmHg 18%
13:00 +33°C° 0 mm 4 mps 720 mmHg 16%
14:00 +34°C° 0 mm 5 mps 720 mmHg 14%
15:00 +32°C° 0 mm 4 mps 719 mmHg 17%
16:00 +30°C° 0 mm 4 mps 719 mmHg 19%
17:00 +28°C° 0 mm 3 mps 718 mmHg 22%
18:00 +27°C° 0 mm 3 mps 719 mmHg 23%
19:00 +25°C° 0 mm 3 mps 719 mmHg 25%
20:00 +23°C° 0 mm 2 mps 719 mmHg 26%
21:00 +21°C° 0 mm 2 mps 719 mmHg 27%
22:00 +21°C° 0 mm 2 mps 719 mmHg 28%
23:00 +20°C° 0 mm 2 mps 719 mmHg 28%
Show more